LFBD

Bordeaux/Merignac

Airport
ICAO code
LFBD
Summary
ICAO Region
EUR
ICAO Territory
Location

Bordeaux/Merignac, Aquitaine,

Coordinates
44° 49' 42" N , 0° 42' 56" W
KCC
Metar
Observation
LFBD 091830Z AUTO 01010KT CAVOK 03/00 Q1003 TEMPO BKN010
Station
Bordeaux / Merignac
Date/Time
2022-12-09 18:30:00
Wind direction
10°
Wind speed
10 kts
Lowest cloud amount
broken clouds
Temperature
3°C
Dew point
0°C
Humidity
80%
QNH
1003 hPa
Weather condition
n/a

Description

International airport serving city of Bordeaux.

Climatology

Temperate Marine climate/Oceanic climate (Köppen climate classification Cfb). Moderately cool summer and comparatively warm winter with a temperature range of only 14°C. Prevailing south-westerly winds from the Atlantic Ocean.

Runways

Designator Length Width Surface Rops
11/29 2415 45 ASP Yes/Yes
5/23 3100 45 ASP Yes/Yes

Airport map

Aerial View

SKYbrary Partners:

Safety knowledge contributed by: